• In Switzerland
  • List of Countries
  • For 7 days
  • Water Temperature
  • Satellite Maps
  • Weather Map
  • Weather Widgets
  • user-avatar
    Login

    Hourly Weather Liestal

    Today, 19 September, Wednesday

    Time Temperature Precipitation Wind Pressure Humidity
    00:00 +18°C° 0 mm 1 mps 734 mmHg 80%
    01:00 +18°C° 0 mm 1 mps 734 mmHg 80%
    02:00 +18°C° 0 mm 1 mps 734 mmHg 80%
    03:00 +18°C° 0 mm 1 mps 734 mmHg 80%
    04:00 +16°C° 0 mm 1 mps 734 mmHg 80%
    05:00 +18°C° 0 mm 1 mps 734 mmHg 80%
    06:00 +18°C° 0 mm 1 mps 735 mmHg 80%
    07:00 +18°C° 0 mm 1 mps 735 mmHg 80%
    08:00 +20°C° 0 mm 1 mps 735 mmHg 72%
    09:00 +23°C° 0 mm 1 mps 736 mmHg 64%
    10:00 +25°C° 0 mm 1 mps 736 mmHg 57%
    11:00 +27°C° 0.1 mm 1 mps 736 mmHg 52%
    12:00 +28°C° 0.1 mm 1 mps 736 mmHg 48%
    13:00 +28°C° 0.1 mm 0 mps 736 mmHg 44%
    14:00 +29°C° 0.1 mm 1 mps 735 mmHg 44%
    15:00 +29°C° 0.1 mm 1 mps 735 mmHg 45%
    16:00 +29°C° 0.1 mm 1 mps 735 mmHg 45%
    17:00 +26°C° 0 mm 1 mps 735 mmHg 53%
    18:00 +24°C° 0 mm 1 mps 735 mmHg 60%
    19:00 +20°C° 0 mm 0 mps 735 mmHg 68%
    20:00 +19°C° 0 mm 0 mps 735 mmHg 70%
    21:00 +20°C° 0 mm 1 mps 735 mmHg 72%
    22:00 +20°C° 0 mm 1 mps 736 mmHg 74%
    23:00 +19°C° 0 mm 1 mps 736 mmHg 76%

    Tomorrow, 20 September, Thursday

    Time Temperature Precipitation Wind Pressure Humidity
    00:00 +19°C° 0 mm 1 mps 736 mmHg 77%
    01:00 +18°C° 0 mm 1 mps 735 mmHg 79%
    02:00 +18°C° 0 mm 1 mps 735 mmHg 80%
    03:00 +18°C° 0 mm 1 mps 735 mmHg 81%
    04:00 +16°C° 0 mm 1 mps 735 mmHg 82%
    05:00 +18°C° 0 mm 1 mps 735 mmHg 81%
    06:00 +18°C° 0 mm 1 mps 735 mmHg 81%
    07:00 +18°C° 0 mm 1 mps 735 mmHg 80%
    08:00 +20°C° 0 mm 1 mps 735 mmHg 72%
    09:00 +21°C° 0 mm 0 mps 735 mmHg 64%
    10:00 +24°C° 0 mm 0 mps 735 mmHg 56%
    11:00 +27°C° 0 mm 1 mps 735 mmHg 52%
    12:00 +28°C° 0 mm 1 mps 735 mmHg 48%
    13:00 +29°C° 0 mm 1 mps 735 mmHg 44%
    14:00 +29°C° 0 mm 1 mps 734 mmHg 44%
    15:00 +29°C° 0 mm 1 mps 734 mmHg 45%
    16:00 +29°C° 0 mm 1 mps 733 mmHg 45%
    17:00 +26°C° 0 mm 1 mps 733 mmHg 54%
    18:00 +24°C° 0 mm 1 mps 733 mmHg 62%
    19:00 +19°C° 0 mm 0 mps 732 mmHg 71%
    20:00 +21°C° 0 mm 1 mps 733 mmHg 73%
    21:00 +20°C° 0 mm 1 mps 733 mmHg 74%
    22:00 +19°C° 0 mm 1 mps 733 mmHg 76%
    23:00 +19°C° 0 mm 1 mps 732 mmHg 77%

    Day after tomorrow, 21 September, Friday

    Time Temperature Precipitation Wind Pressure Humidity
    00:00 +19°C° 0 mm 1 mps 732 mmHg 78%
    01:00 +18°C° 0 mm 1 mps 732 mmHg 80%
    02:00 +18°C° 0 mm 1 mps 731 mmHg 79%
    03:00 +18°C° 0 mm 1 mps 731 mmHg 79%
    04:00 +16°C° 0 mm 2 mps 731 mmHg 79%
    05:00 +17°C° 0 mm 2 mps 731 mmHg 78%
    06:00 +17°C° 0 mm 2 mps 731 mmHg 76%
    07:00 +17°C° 0 mm 2 mps 731 mmHg 74%
    08:00 +20°C° 0 mm 3 mps 731 mmHg 67%
    09:00 +22°C° 0 mm 3 mps 732 mmHg 59%
    10:00 +26°C° 0 mm 4 mps 732 mmHg 51%
    11:00 +27°C° 0 mm 5 mps 732 mmHg 48%
    12:00 +28°C° 0 mm 5 mps 732 mmHg 44%
    13:00 +28°C° 0 mm 6 mps 732 mmHg 41%
    14:00 +28°C° 0 mm 5 mps 732 mmHg 43%
    15:00 +28°C° 0 mm 5 mps 732 mmHg 45%
    16:00 +27°C° 0 mm 5 mps 731 mmHg 48%
    17:00 +25°C° 0.3 mm 4 mps 732 mmHg 59%
    18:00 +21°C° 0.3 mm 3 mps 733 mmHg 71%
    19:00 +19°C° 0.3 mm 3 mps 733 mmHg 82%
    20:00 +18°C° 1 mm 3 mps 734 mmHg 85%
    21:00 +16°C° 1 mm 2 mps 734 mmHg 88%
    22:00 +15°C° 1 mm 2 mps 735 mmHg 91%
    23:00 +14°C° 1.6 mm 2 mps 735 mmHg 91%

    22 September, Saturday

    Time Temperature Precipitation Wind Pressure Humidity
    00:00 +14°C° 1.6 mm 1 mps 735 mmHg 92%
    01:00 +13°C° 1.6 mm 1 mps 735 mmHg 92%
    02:00 +13°C° 0.3 mm 1 mps 735 mmHg 92%
    03:00 +13°C° 0.3 mm 1 mps 735 mmHg 92%
    04:00 +12°C° 0.3 mm 1 mps 735 mmHg 93%
    05:00 +12°C° 0.1 mm 1 mps 736 mmHg 92%
    06:00 +12°C° 0.1 mm 1 mps 736 mmHg 92%
    07:00 +12°C° 0.1 mm 1 mps 736 mmHg 91%
    08:00 +13°C° 0.1 mm 1 mps 736 mmHg 87%
    09:00 +14°C° 0.1 mm 1 mps 736 mmHg 83%
    10:00 +15°C° 0.1 mm 1 mps 737 mmHg 79%
    11:00 +16°C° 0 mm 1 mps 736 mmHg 71%
    12:00 +18°C° 0 mm 1 mps 736 mmHg 63%
    13:00 +19°C° 0 mm 1 mps 736 mmHg 55%
    14:00 +19°C° 0 mm 2 mps 736 mmHg 54%
    15:00 +19°C° 0 mm 2 mps 736 mmHg 52%
    16:00 +19°C° 0 mm 2 mps 736 mmHg 51%
    17:00 +18°C° 0 mm 1 mps 736 mmHg 57%
    18:00 +15°C° 0 mm 1 mps 736 mmHg 64%
    19:00 +14°C° 0 mm 1 mps 736 mmHg 70%
    20:00 +13°C° 0 mm 1 mps 736 mmHg 72%
    21:00 +13°C° 0 mm 1 mps 736 mmHg 73%
    22:00 +12°C° 0 mm 1 mps 736 mmHg 75%
    23:00 +12°C° 0 mm 1 mps 735 mmHg 76%

    23 September, Sunday

    Time Temperature Precipitation Wind Pressure Humidity
    00:00 +12°C° 0 mm 1 mps 735 mmHg 77%
    01:00 +11°C° 0 mm 1 mps 734 mmHg 78%
    02:00 +12°C° 0 mm 1 mps 733 mmHg 77%
    03:00 +12°C° 0 mm 1 mps 733 mmHg 75%
    04:00 +13°C° 0 mm 1 mps 732 mmHg 73%
    05:00 +13°C° 0 mm 1 mps 732 mmHg 74%
    06:00 +13°C° 0 mm 1 mps 731 mmHg 74%
    07:00 +14°C° 0 mm 1 mps 731 mmHg 75%
    08:00 +16°C° 0 mm 2 mps 730 mmHg 68%
    09:00 +19°C° 0 mm 2 mps 729 mmHg 61%
    10:00 +21°C° 0 mm 2 mps 729 mmHg 54%
    11:00 +24°C° 0 mm 3 mps 728 mmHg 50%
    12:00 +26°C° 0 mm 4 mps 727 mmHg 46%
    13:00 +29°C° 0 mm 5 mps 726 mmHg 42%
    14:00 +28°C° 0.2 mm 5 mps 725 mmHg 47%
    15:00 +27°C° 0.2 mm 5 mps 723 mmHg 53%
    16:00 +26°C° 0.2 mm 5 mps 722 mmHg 59%
    17:00 +22°C° 1 mm 6 mps 722 mmHg 67%
    18:00 +20°C° 1 mm 8 mps 723 mmHg 76%
    19:00 +16°C° 1 mm 9 mps 723 mmHg 84%
    20:00 +15°C° 1.6 mm 9 mps 724 mmHg 84%
    21:00 +12°C° 1.6 mm 9 mps 724 mmHg 84%
    22:00 +11°C° 1.6 mm 9 mps 725 mmHg 84%
    23:00 +11°C° 0.1 mm 10 mps 725 mmHg 77%

    24 September, Monday

    Time Temperature Precipitation Wind Pressure Humidity
    00:00 +11°C° 0.1 mm 11 mps 724 mmHg 71%
    01:00 +9°C° 0.1 mm 11 mps 724 mmHg 64%
    02:00 +9°C° 0.1 mm 11 mps 724 mmHg 65%
    03:00 +9°C° 0.1 mm 11 mps 724 mmHg 66%
    04:00 +9°C° 0.1 mm 10 mps 725 mmHg 67%
    05:00 +10°C° 1.1 mm 9 mps 726 mmHg 75%
    06:00 +9°C° 1.1 mm 8 mps 727 mmHg 82%
    07:00 +8°C° 1.1 mm 7 mps 729 mmHg 90%
    08:00 +8°C° 0.7 mm 6 mps 730 mmHg 89%
    09:00 +8°C° 0.7 mm 6 mps 731 mmHg 88%
    10:00 +8°C° 0.7 mm 6 mps 733 mmHg 87%
    11:00 +9°C° 0.6 mm 6 mps 733 mmHg 86%
    12:00 +9°C° 0.6 mm 5 mps 734 mmHg 85%
    13:00 +9°C° 0.6 mm 5 mps 735 mmHg 83%
    14:00 +9°C° 0.5 mm 5 mps 735 mmHg 82%
    15:00 +9°C° 0.5 mm 5 mps 736 mmHg 81%
    16:00 +11°C° 0.5 mm 4 mps 736 mmHg 79%
    17:00 +10°C° 0.4 mm 4 mps 737 mmHg 82%
    18:00 +9°C° 0.4 mm 3 mps 737 mmHg 85%
    19:00 +8°C° 0.4 mm 2 mps 738 mmHg 88%
    20:00 +8°C° 0.2 mm 2 mps 738 mmHg 89%
    21:00 +7°C° 0.2 mm 2 mps 739 mmHg 90%
    22:00 +7°C° 0.2 mm 2 mps 740 mmHg 91%
    23:00 +7°C° 0.1 mm 1 mps 740 mmHg 92%
    Show more